Orbital Elements at Epoch 2459200.5 (2020-Dec-17.0) TDB
Reference: JPL 28 (heliocentric ecliptic J2000)
Element | Value | Uncertainty (1-sigma) | Units |
e | .1270056006306755 | 2.4345e-08 | |
a | 2.382063366064985 | 6.9718e-09 | au |
q | 2.079527977517573 | 5.7563e-08 | au |
i | 5.459799574819591 | 4.5455e-06 | deg |
node | 202.4119110569887 | 2.9154e-05 | deg |
peri | 94.46427586219986 | 3.4914e-05 | deg |
M | 99.16269283805784 | 1.9265e-05 | deg |
tp | 2458830.608626345460 (2019-Dec-13.10862635) | 7.1416e-05 | TDB |
period | 1342.852747384532 3.68 | 5.8954e-06 1.614e-08 | d yr |
n | .2680859838885316 | 1.1769e-09 | deg/d |
Q | 2.684598754612397 | 7.8573e-09 | au |
|
| | Orbit Determination Parameters
Additional Information
|